This is the latest recevied weather packets stored in our database for station/object KC8BSD. If no packets are shown the sender has not sent any weather packets the latest 10 day(s).
| Time | Temp. | Humidity | Pressure | Rain* | Wind** | Luminosity | Snow |
|---|---|---|---|---|---|---|---|
| 1777480812 | 10.56° C | 83% | 1013.2 hPa | 0 mm | - | 182 W/m² | - |
| 1777480509 | 10.56° C | 82% | 1013.4 hPa | 0 mm | - | 186 W/m² | - |
| 1777480205 | 10.56° C | 81% | 1013.5 hPa | 0 mm | - | 294 W/m² | - |
| 1777479902 | 10° C | 82% | 1013.5 hPa | 0 mm | - | 271 W/m² | - |
| 1777479598 | 10.56° C | 82% | 1013.7 hPa | 0 mm | - | 209 W/m² | - |
| 1777479296 | 10.56° C | 83% | 1013.8 hPa | 0 mm | - | 224 W/m² | - |
| 1777478993 | 10.56° C | 83% | 1013.6 hPa | 0 mm | - | 274 W/m² | - |
| 1777478689 | 10.56° C | 83% | 1013.7 hPa | 0 mm | - | 354 W/m² | - |
| 1777478386 | 10.56° C | 85% | 1013.8 hPa | 0 mm | - | 358 W/m² | - |
| 1777478083 | 10° C | 85% | 1014 hPa | 0 mm | - | 308 W/m² | - |
| 1777477778 | 10° C | 87% | 1013.9 hPa | 0 mm | - | 229 W/m² | - |
| 1777477474 | 10° C | 87% | 1013.9 hPa | 0 mm | - | 215 W/m² | - |
| 1777477171 | 10° C | 88% | 1014.1 hPa | 0 mm | - | 184 W/m² | - |
| 1777476867 | 9.44° C | 89% | 1014 hPa | 0 mm | - | 214 W/m² | - |
| 1777476566 | 9.44° C | 89% | 1014.2 hPa | 0 mm | - | 177 W/m² | - |
| 1777476262 | 9.44° C | 90% | 1014.2 hPa | 0 mm | - | 163 W/m² | - |
| 1777475957 | 9.44° C | 90% | 1014.1 hPa | 0 mm | - | 187 W/m² | - |
| 1777475654 | 9.44° C | 91% | 1014.1 hPa | 0 mm | - | 188 W/m² | - |
| 1777475350 | 9.44° C | 91% | 1014.2 hPa | 0 mm | - | 196 W/m² | - |
| 1777475045 | 9.44° C | 91% | 1014.3 hPa | 0 mm | - | 183 W/m² | - |
| 1777474742 | 8.89° C | 92% | 1014.2 hPa | 0 mm | - | 128 W/m² | - |
| 1777474438 | 8.89° C | 92% | 1014.1 hPa | 0 mm | - | 96 W/m² | - |
| 1777474135 | 8.89° C | 92% | 1014.3 hPa | 0 mm | - | 104 W/m² | - |
| 1777473833 | 8.89° C | 92% | 1014.1 hPa | 0 mm | - | 88 W/m² | - |
| 1777473529 | 8.89° C | 92% | 1014.2 hPa | 0 mm | - | 59 W/m² | - |
* Rain latest hour (hover to see other rain measurements)
** Current wind speed in m/s (hover to see current wind gust speed)